TimeCDT,TemperatureF,Dew PointF,Humidity,Sea Level PressureIn,VisibilityMPH,Wind Direction,Wind SpeedMPH,Gust SpeedMPH,PrecipitationIn,Events,Conditions,WindDirDegrees,DateUTC
12:15 AM,31.8,28.8,88,29.83,2.5,NNW,23.0,29.9,N/A,Snow,Light Snow,340,2014-03-19 05:15:00
12:35 AM,32.0,28.9,88,29.83,2.5,NNW,24.2,31.1,N/A,Snow,Light Snow,340,2014-03-19 05:35:00
12:55 AM,32.0,29.3,90,29.83,2.5,NNW,25.3,-,N/A,Snow,Light Snow,340,2014-03-19 05:55:00
1:15 AM,32.5,29.3,88,29.84,3.0,NNW,26.5,36.8,N/A,,Overcast,340,2014-03-19 06:15:00
1:35 AM,32.9,29.8,88,29.85,5.0,NNW,25.3,31.1,N/A,,Overcast,340,2014-03-19 06:35:00
1:55 AM,32.9,29.8,88,29.86,5.0,NNW,24.2,34.5,N/A,,Overcast,340,2014-03-19 06:55:00
2:15 AM,32.9,29.3,87,29.87,5.0,NNW,23.0,31.1,N/A,,Overcast,330,2014-03-19 07:15:00
2:35 AM,32.9,29.1,86,29.88,7.0,NNW,18.4,31.1,N/A,,Overcast,330,2014-03-19 07:35:00
2:55 AM,32.4,28.4,85,29.89,7.0,NNW,20.7,28.8,N/A,,Overcast,330,2014-03-19 07:55:00
3:15 AM,32.4,28.2,85,29.90,10.0,NNW,24.2,32.2,N/A,,Overcast,330,2014-03-19 08:15:00
3:35 AM,32.5,28.0,83,29.90,7.0,NNW,23.0,31.1,N/A,,Overcast,340,2014-03-19 08:35:00
3:55 AM,32.7,27.9,82,29.91,10.0,NNW,21.9,29.9,N/A,,Overcast,330,2014-03-19 08:55:00
4:15 AM,32.5,27.1,80,29.92,10.0,NNW,18.4,27.6,N/A,,Overcast,330,2014-03-19 09:15:00
4:35 AM,32.2,26.6,80,29.93,10.0,NW,18.4,25.3,N/A,,Overcast,320,2014-03-19 09:35:00
4:55 AM,32.0,26.4,80,29.96,10.0,NW,18.4,-,N/A,,Overcast,320,2014-03-19 09:55:00
5:15 AM,32.0,25.7,78,29.97,10.0,NNW,18.4,26.5,N/A,,Overcast,330,2014-03-19 10:15:00
5:35 AM,32.0,25.9,78,29.97,10.0,NNW,21.9,27.6,N/A,,Overcast,330,2014-03-19 10:35:00
5:55 AM,32.0,25.5,77,29.98,10.0,NNW,20.7,28.8,N/A,,Overcast,330,2014-03-19 10:55:00
6:15 AM,31.5,24.4,75,29.99,10.0,NNW,17.3,26.5,N/A,,Overcast,330,2014-03-19 11:15:00
6:35 AM,30.0,23.7,77,29.99,10.0,NNW,12.7,17.3,N/A,,Scattered Clouds,330,2014-03-19 11:35:00
6:55 AM,29.3,23.2,78,30.00,10.0,NNW,11.5,-,N/A,,Scattered Clouds,330,2014-03-19 11:55:00
7:15 AM,28.2,22.8,80,30.02,10.0,NNW,11.5,-,N/A,,Scattered Clouds,330,2014-03-19 12:15:00
7:35 AM,28.8,23.0,79,30.03,10.0,NNW,9.2,-,N/A,,Mostly Cloudy,330,2014-03-19 12:35:00
7:55 AM,27.9,22.5,80,30.04,10.0,NNW,6.9,-,N/A,,Mostly Cloudy,330,2014-03-19 12:55:00
8:15 AM,26.6,21.6,81,30.04,10.0,NNW,6.9,-,N/A,,Scattered Clouds,330,2014-03-19 13:15:00
8:35 AM,25.7,21.7,85,30.04,10.0,NW,4.6,-,N/A,,Mostly Cloudy,310,2014-03-19 13:35:00
8:55 AM,28.9,23.7,81,30.05,10.0,WNW,8.1,-,N/A,,Scattered Clouds,300,2014-03-19 13:55:00
9:15 AM,30.4,24.4,79,30.06,10.0,West,9.2,-,N/A,,Clear,280,2014-03-19 14:15:00
9:35 AM,31.8,25.5,78,30.07,10.0,WNW,9.2,-,N/A,,Clear,290,2014-03-19 14:35:00
9:55 AM,32.9,26.4,77,30.07,10.0,WNW,12.7,-,N/A,,Clear,290,2014-03-19 14:55:00
10:15 AM,33.6,26.8,76,30.08,10.0,WNW,11.5,-,N/A,,Clear,300,2014-03-19 15:15:00
10:35 AM,34.9,27.5,74,30.09,10.0,WNW,12.7,-,N/A,,Clear,300,2014-03-19 15:35:00
10:55 AM,36.3,28.0,72,30.09,10.0,WNW,15.0,-,N/A,,Clear,300,2014-03-19 15:55:00
11:15 AM,37.4,28.6,70,30.10,10.0,NW,13.8,-,N/A,,Clear,310,2014-03-19 16:15:00
11:35 AM,38.7,29.3,69,30.10,10.0,WNW,13.8,-,N/A,,Clear,290,2014-03-19 16:35:00
11:55 AM,39.6,29.3,67,30.10,10.0,WNW,12.7,17.3,N/A,,Scattered Clouds,290,2014-03-19 16:55:00
12:15 PM,41.2,29.8,64,30.10,10.0,WNW,11.5,-,N/A,,Scattered Clouds,290,2014-03-19 17:15:00
12:35 PM,42.4,29.5,60,30.10,10.0,West,13.8,18.4,N/A,,Scattered Clouds,280,2014-03-19 17:35:00
12:55 PM,43.5,28.8,56,30.10,10.0,WNW,12.7,18.4,N/A,,Scattered Clouds,290,2014-03-19 17:55:00
1:15 PM,45.0,27.9,51,30.09,10.0,NW,13.8,21.9,N/A,,Scattered Clouds,310,2014-03-19 18:15:00
1:35 PM,46.8,27.0,46,30.09,10.0,WNW,12.7,24.2,N/A,,Scattered Clouds,290,2014-03-19 18:35:00
1:55 PM,47.8,25.7,42,30.08,10.0,WNW,15.0,19.6,N/A,,Mostly Cloudy,300,2014-03-19 18:55:00
2:15 PM,48.2,26.4,43,30.07,10.0,NW,16.1,23.0,N/A,,Scattered Clouds,310,2014-03-19 19:15:00
2:35 PM,50.4,26.4,39,30.07,10.0,WNW,20.7,24.2,N/A,,Mostly Cloudy,290,2014-03-19 19:35:00
2:55 PM,48.6,25.5,41,30.06,10.0,WNW,15.0,21.9,N/A,,Scattered Clouds,290,2014-03-19 19:55:00
3:15 PM,50.0,25.7,39,30.06,10.0,West,13.8,27.6,N/A,,Scattered Clouds,260,2014-03-19 20:15:00
3:35 PM,50.5,24.8,37,30.05,10.0,WNW,10.4,-,N/A,,Scattered Clouds,290,2014-03-19 20:35:00
3:55 PM,51.3,22.1,32,30.04,10.0,WNW,16.1,21.9,N/A,,Mostly Cloudy,290,2014-03-19 20:55:00
4:15 PM,52.5,22.3,31,30.04,10.0,West,15.0,-,N/A,,Scattered Clouds,280,2014-03-19 21:15:00
4:35 PM,51.8,21.0,30,30.04,10.0,WNW,15.0,-,N/A,,Mostly Cloudy,290,2014-03-19 21:35:00
4:55 PM,50.5,21.0,31,30.04,10.0,NW,9.2,-,N/A,,Overcast,310,2014-03-19 21:55:00
5:15 PM,51.3,21.6,31,30.04,10.0,WNW,10.4,18.4,N/A,,Overcast,290,2014-03-19 22:15:00
5:35 PM,50.4,21.9,33,30.04,10.0,West,11.5,-,N/A,,Overcast,270,2014-03-19 22:35:00
5:55 PM,50.0,23.0,35,30.05,10.0,NW,10.4,-,N/A,,Overcast,310,2014-03-19 22:55:00
6:15 PM,49.3,24.3,38,30.05,10.0,NNW,8.1,-,N/A,,Overcast,330,2014-03-19 23:15:00
6:35 PM,48.9,24.3,38,30.05,10.0,WNW,6.9,-,N/A,,Mostly Cloudy,300,2014-03-19 23:35:00
6:55 PM,47.8,26.4,43,30.05,10.0,NNW,4.6,-,N/A,,Overcast,330,2014-03-19 23:55:00
7:15 PM,47.5,25.7,43,30.05,10.0,Calm,Calm,-,N/A,,Overcast,0,2014-03-20 00:15:00
7:35 PM,46.6,27.0,46,30.05,10.0,Calm,Calm,-,N/A,,Overcast,0,2014-03-20 00:35:00
7:55 PM,44.8,27.5,51,30.04,10.0,Calm,Calm,-,N/A,,Overcast,0,2014-03-20 00:55:00
8:15 PM,43.2,27.5,54,30.04,10.0,Calm,Calm,-,N/A,,Overcast,0,2014-03-20 01:15:00
8:35 PM,43.2,27.3,54,30.04,10.0,Calm,Calm,-,N/A,,Overcast,0,2014-03-20 01:35:00
8:55 PM,42.3,26.4,54,30.04,10.0,Calm,Calm,-,N/A,,Scattered Clouds,0,2014-03-20 01:55:00
9:15 PM,42.3,26.8,54,30.04,10.0,Calm,Calm,-,N/A,,Clear,0,2014-03-20 02:15:00
9:35 PM,40.6,26.1,56,30.04,10.0,Calm,Calm,-,N/A,,Clear,0,2014-03-20 02:35:00
9:55 PM,37.4,25.5,62,30.04,10.0,South,3.5,-,N/A,,Clear,180,2014-03-20 02:55:00
10:15 PM,36.1,25.5,65,30.04,10.0,South,3.5,-,N/A,,Clear,190,2014-03-20 03:15:00
10:35 PM,36.5,26.4,67,30.04,10.0,SW,4.6,-,N/A,,Clear,220,2014-03-20 03:35:00
10:55 PM,33.6,25.3,72,30.05,10.0,SW,3.5,-,N/A,,Clear,230,2014-03-20 03:55:00
11:15 PM,33.3,25.0,72,30.04,10.0,Calm,Calm,-,N/A,,Clear,0,2014-03-20 04:15:00
11:35 PM,33.8,25.5,72,30.04,10.0,Calm,Calm,-,N/A,,Clear,0,2014-03-20 04:35:00
11:55 PM,32.0,24.6,74,30.04,10.0,Calm,Calm,-,N/A,,Clear,0,2014-03-20 04:55:00